Bedminster, NJ

3:34 PM EST on February 24, 2017 (GMT -0500)
Somerset

Weather History for KSMQ - October, 2012

Change the Weather History Date:

Thursday, October 4, 2012

  Actual Average Record
Temperature  
Mean Temperature 66 °F -  
Max Temperature 75 °F 68 °F 87 °F (2007)
Min Temperature 59 °F 45 °F 30 °F (1974)
Cooling Degree Days 1    
Growing Degree Days 16 (Base 50)    
Moisture  
Dew Point 65 °F    
Average Humidity 96    
Maximum Humidity 100    
Minimum Humidity 85    
Precipitation  
Precipitation 0.03 in - - ()
Sea Level Pressure  
Sea Level Pressure 30.08 in    
Wind  
Wind Speed 0 mph (South)    
Max Wind Speed 5 mph    
Max Gust Speed -    
Visibility 3 miles    
Events Fog , Rain    
Averages and records for this station are not official NWS values.
T = Trace of Precipitation, MM = Missing Value Source: NWS Daily Summary

Daily Weather History Graph

Daily Weather History Graph

Search for Another Location

Airport or City:

Trip Planner

Search our weather history database for the weather conditions in past years. The results will help you decide how hot, cold, wet, or windy it might be!

Date:

Astronomy

Oct. 04, 2012 Rise Set
Actual Time 6:58 AM EDT 6:35 PM EDT
Civil Twilight 6:31 AM EDT 7:02 PM EDT
Nautical Twilight 5:59 AM EDT 7:33 PM EDT
Astronomical Twilight 5:27 AM EDT 8:05 PM EDT
Moon 9:07 PM EDT (10/4) 11:14 AM EDT (10/4)
Length of Visible Light 12h 30m
Length of Day
11h 36m
Waning Gibbous, 82% of the Moon is Illuminated
Oct 4
Waning Gibbous
Oct 8
Last Quarter
Oct 15
New
Oct 21
First Quarter
Oct 29
Full

Hourly Weather History & Observations

Time (EDT) Temp. Dew Point Humidity Pressure Visibility Wind Dir Wind Speed Gust Speed Precip Events Conditions
12:53 AM 64.9 °F 64.9 °F 100% 30.11 in 0.5 mi Calm Calm - N/A Fog Fog
1:12 AM 64.4 °F 64.4 °F 100% 30.11 in 0.2 mi Calm Calm - 0.01 in Fog Fog
1:22 AM 64.4 °F 64.4 °F 100% 30.11 in 0.5 mi Calm Calm - 0.01 in Fog Fog
1:53 AM 64.0 °F 64.0 °F 100% 30.11 in 0.8 mi Calm Calm - 0.01 in   Mist
2:08 AM 64.4 °F 64.4 °F 100% 30.11 in 1.0 mi Calm Calm - N/A   Mist
2:16 AM 64.4 °F 64.4 °F 100% 30.11 in 0.8 mi Calm Calm - N/A   Overcast
2:45 AM 64.4 °F 64.4 °F 100% 30.11 in 0.2 mi Calm Calm - N/A Fog Fog
2:53 AM 64.9 °F 64.0 °F 97% 30.12 in 0.2 mi Calm Calm - N/A Fog Fog
3:05 AM 64.4 °F 64.4 °F 100% 30.11 in 0.5 mi Calm Calm - N/A Fog Fog
3:53 AM 64.0 °F 64.0 °F 100% 30.10 in 0.2 mi Calm Calm - N/A Fog Fog
4:18 AM 64.4 °F 64.4 °F 100% 30.10 in 0.5 mi Calm Calm - N/A Fog Fog
4:53 AM 64.0 °F 64.0 °F 100% 30.11 in 0.8 mi Calm Calm - N/A   Overcast
5:53 AM 64.0 °F 64.0 °F 100% 30.12 in 0.5 mi Calm Calm - N/A Fog Fog
6:36 AM 64.4 °F 64.4 °F 100% 30.12 in 1.2 mi Calm Calm - 0.00 in   Overcast
6:53 AM 64.0 °F 64.0 °F 100% 30.11 in 1.2 mi Calm Calm - 0.00 in   Overcast
7:11 AM 64.4 °F 64.4 °F 100% 30.11 in 0.5 mi Calm Calm - N/A Fog Fog
7:33 AM 64.4 °F 64.4 °F 100% 30.11 in 2.0 mi Calm Calm - N/A   Overcast
7:41 AM 64.4 °F 64.4 °F 100% 30.11 in 5.0 mi Calm Calm - N/A   Mostly Cloudy
7:53 AM 64.9 °F 64.0 °F 97% 30.11 in 5.0 mi Calm Calm - N/A   Scattered Clouds
8:53 AM 66.0 °F 66.0 °F 100% 30.12 in 6.0 mi Calm Calm - N/A   Mostly Cloudy
9:17 AM 66.2 °F 66.2 °F 100% 30.12 in 4.0 mi Calm Calm - N/A   Overcast
9:46 AM 66.2 °F 66.2 °F 100% 30.13 in 5.0 mi Calm Calm - 0.00 in Rain Light Rain
9:53 AM 66.9 °F 66.9 °F 100% 30.13 in 5.0 mi Calm Calm - 0.00 in   Mostly Cloudy
10:32 AM 68.0 °F 66.2 °F 94% 30.11 in 4.0 mi Calm Calm - 0.00 in Rain Light Rain
10:53 AM 69.1 °F 68.0 °F 96% 30.09 in 4.0 mi Calm Calm - 0.01 in   Mostly Cloudy
11:53 AM 72.0 °F 69.1 °F 91% 30.10 in 5.0 mi Calm Calm - N/A   Mostly Cloudy
12:04 PM 71.6 °F 69.8 °F 94% 30.10 in 5.0 mi Calm Calm - N/A   Mostly Cloudy
12:39 PM 71.6 °F 69.8 °F 94% 30.08 in 6.0 mi Calm Calm - 0.00 in Rain Light Rain
12:53 PM 72.0 °F 69.1 °F 91% 30.08 in 6.0 mi Calm Calm - 0.00 in Rain Light Rain
1:53 PM 73.0 °F 69.1 °F 87% 30.06 in 8.0 mi Calm Calm - 0.00 in   Mostly Cloudy
2:53 PM 73.9 °F 70.0 °F 87% 30.05 in 7.0 mi Calm Calm - N/A   Mostly Cloudy
3:53 PM 73.9 °F 70.0 °F 87% 30.04 in 7.0 mi South 4.6 mph - N/A   Mostly Cloudy
4:04 PM 73.4 °F 71.6 °F 94% 30.04 in 7.0 mi Calm Calm - N/A   Mostly Cloudy
4:38 PM 73.4 °F 69.8 °F 88% 30.04 in 8.0 mi Calm Calm - N/A   Mostly Cloudy
4:53 PM 73.9 °F 69.1 °F 85% 30.04 in 8.0 mi Calm Calm - N/A   Scattered Clouds
5:12 PM 73.4 °F 69.8 °F 88% 30.04 in 8.0 mi Calm Calm - N/A   Mostly Cloudy
5:38 PM 73.4 °F 69.8 °F 88% 30.03 in 7.0 mi Calm Calm - 0.01 in   Mostly Cloudy
5:53 PM 73.0 °F 71.1 °F 93% 30.03 in 7.0 mi Calm Calm - 0.01 in   Partly Cloudy
6:53 PM 69.1 °F 66.9 °F 93% 30.03 in 2.0 mi Calm Calm - N/A   Clear
7:00 PM 68.0 °F 66.2 °F 94% 30.03 in 1.0 mi Calm Calm - N/A   Clear
7:07 PM 68.0 °F 66.2 °F 94% 30.03 in 3.0 mi Calm Calm - N/A   Clear
7:27 PM 66.2 °F 66.2 °F 100% 30.04 in 2.0 mi Calm Calm - N/A   Partly Cloudy
7:42 PM 66.2 °F 66.2 °F 100% 30.04 in 7.0 mi Calm Calm - N/A   Partly Cloudy
7:53 PM 66.9 °F 66.0 °F 97% 30.04 in 8.0 mi Calm Calm - N/A   Partly Cloudy
8:11 PM 66.2 °F 64.4 °F 94% 30.04 in 1.8 mi Calm Calm - N/A   Clear
8:15 PM 66.2 °F 64.4 °F 94% 30.05 in 0.8 mi Calm Calm - N/A   Mist
8:25 PM 66.2 °F 64.4 °F 94% 30.04 in 0.2 mi Calm Calm - N/A Fog Fog
8:53 PM 63.0 °F 63.0 °F 100% 30.05 in 0.2 mi Calm Calm - N/A Fog Fog
9:53 PM 62.1 °F 62.1 °F 100% 30.06 in 0.5 mi Calm Calm - N/A Fog Fog
10:08 PM 60.8 °F 60.8 °F 100% 30.06 in 0.2 mi Calm Calm - N/A Fog Fog
10:39 PM 60.8 °F 60.8 °F 100% 30.06 in 0.5 mi Calm Calm - N/A Fog Fog
10:53 PM 60.1 °F 59.0 °F 96% 30.06 in 0.2 mi Calm Calm - N/A Fog Fog
11:35 PM 59.0 °F 57.2 °F 94% 30.06 in 0.8 mi Calm Calm - N/A   Mist
11:49 PM 59.0 °F 59.0 °F 100% 30.06 in 0.2 mi Calm Calm - N/A Fog Fog
11:53 PM 59.0 °F 59.0 °F 100% 30.06 in 0.2 mi Calm Calm - N/A Fog Fog